| time (UTC) | temp C | wind direction | speed KPH | gust KPH | rain 1hr cm | rain 24hr cm | rain mn cm | humidity % | barometer mb |
| 20260508060522 | 2 | 299 | 4.8 | 4.8 | 0.00 | 0.00 | 0.00 | 99 | 1007.4 |
| 20260508060020 | 2 | 2 | 1.6 | 3.2 | 0.00 | 0.00 | 0.00 | 99 | 1007.5 |
| 20260508055515 | 2 | 324 | 8.0 | 9.7 | 0.00 | 0.00 | 0.00 | 99 | 1007.8 |
| 20260508055013 | 2 | 324 | 0.0 | 1.6 | 0.00 | 0.00 | 0.00 | 99 | 1007.3 |
| 20260508054509 | 2 | 341 | 1.6 | 1.6 | 0.00 | 0.00 | 0.00 | 99 | 1007.4 |
| 20260508054006 | 2 | 285 | 3.2 | 3.2 | 0.00 | 0.00 | 0.00 | 99 | 1007.3 |
| 20260508053503 | 2 | 297 | 8.0 | 9.7 | 0.00 | 0.00 | 0.00 | 99 | 1007.4 |
| 20260508053001 | 2 | 262 | 4.8 | 4.8 | 0.00 | 0.00 | 0.00 | 99 | 1007.2 |
| 20260508052458 | 2 | 275 | 3.2 | 3.2 | 0.00 | 0.00 | 0.00 | 99 | 1007.3 |
| 20260508051954 | 2 | 282 | 4.8 | 8.0 | 0.00 | 0.00 | 0.00 | 99 | 1007.5 |
| 20260508051450 | 2 | 247 | 4.8 | 4.8 | 0.00 | 0.00 | 0.00 | 99 | 1007.5 |
| 20260508050946 | 2 | 283 | 4.8 | 4.8 | 0.00 | 0.00 | 0.00 | 99 | 1007.6 |
| 20260508050442 | 2 | 294 | 1.6 | 1.6 | 0.00 | 0.00 | 0.00 | 99 | 1007.6 |
| 20260508045939 | 2 | 263 | 3.2 | 3.2 | 0.00 | 0.00 | 0.00 | 99 | 1007.7 |
| 20260508045437 | 2 | 301 | 3.2 | 3.2 | 0.00 | 0.00 | 0.00 | 99 | 1007.9 |
| 20260508044934 | 2 | 348 | 0.0 | 1.6 | 0.00 | 0.00 | 0.00 | 99 | 1007.8 |
| 20260508044431 | 2 | 329 | 0.0 | 1.6 | 0.00 | 0.00 | 0.00 | 99 | 1007.7 |
| 20260508043926 | 2 | 266 | 3.2 | 3.2 | 0.00 | 0.00 | 0.00 | 99 | 1007.7 |
| 20260508043424 | 2 | 273 | 4.8 | 4.8 | 0.00 | 0.00 | 0.00 | 99 | 1007.8 |
| 20260508042920 | 2 | 265 | 4.8 | 4.8 | 0.00 | 0.00 | 0.00 | 99 | 1007.8 |
| 20260508042418 | 2 | 338 | 1.6 | 3.2 | 0.00 | 0.00 | 0.00 | 99 | 1007.7 |
| 20260508041915 | 2 | 2 | 1.6 | 3.2 | 0.00 | 0.00 | 0.00 | 99 | 1007.6 |
| 20260508041411 | 2 | 315 | 1.6 | 3.2 | 0.00 | 0.00 | 0.00 | 99 | 1007.6 |
| 20260508040908 | 2 | 306 | 3.2 | 4.8 | 0.00 | 0.00 | 0.00 | 99 | 1007.6 |
| 20260508040405 | 2 | 295 | 3.2 | 3.2 | 0.00 | 0.00 | 0.00 | 99 | 1007.8 |
| 20260508035903 | 2 | 281 | 3.2 | 3.2 | 0.00 | 0.36 | 0.36 | 99 | 1007.5 |
| 20260508035400 | 2 | 270 | 9.7 | 11.3 | 0.00 | 0.36 | 0.36 | 99 | 1007.6 |
| 20260508034856 | 2 | 318 | 1.6 | 1.6 | 0.00 | 0.36 | 0.36 | 99 | 1007.3 |
| 20260508034353 | 2 | 264 | 3.2 | 3.2 | 0.00 | 0.36 | 0.36 | 99 | 1007.5 |
| 20260508033844 | 2 | 267 | 3.2 | 3.2 | 0.00 | 0.36 | 0.36 | 99 | 1007.5 |
| 20260508033343 | 2 | 275 | 6.4 | 8.0 | 0.00 | 0.36 | 0.36 | 99 | 1007.4 |
| 20260508032840 | 2 | 259 | 4.8 | 8.0 | 0.00 | 0.36 | 0.36 | 99 | 1007.5 |
| 20260508032337 | 2 | 283 | 8.0 | 9.7 | 0.00 | 0.36 | 0.36 | 99 | 1007.5 |
| 20260508031833 | 2 | 330 | 1.6 | 3.2 | 0.00 | 0.36 | 0.36 | 99 | 1007.4 |
| 20260508031331 | 2 | 299 | 1.6 | 3.2 | 0.00 | 0.36 | 0.36 | 99 | 1007.1 |
| 20260508030827 | 2 | 264 | 3.2 | 3.2 | 0.00 | 0.36 | 0.36 | 99 | 1007.4 |
| 20260508030324 | 2 | 230 | 8.0 | 9.7 | 0.00 | 0.36 | 0.36 | 99 | 1007.2 |
| 20260508025821 | 2 | 283 | 1.6 | 1.6 | 0.00 | 0.36 | 0.36 | 99 | 1007.3 |
| 20260508025318 | 2 | 316 | 1.6 | 1.6 | 0.00 | 0.36 | 0.36 | 99 | 1007.4 |
| 20260508024815 | 2 | 325 | 3.2 | 8.0 | 0.00 | 0.36 | 0.36 | 99 | 1007.3 |
| 20260508024311 | 2 | 275 | 6.4 | 8.0 | 0.00 | 0.36 | 0.36 | 99 | 1007.5 |
| 20260508023808 | 2 | 323 | 3.2 | 3.2 | 0.00 | 0.36 | 0.36 | 99 | 1007.3 |
| 20260508023305 | 2 | 320 | 3.2 | 4.8 | 0.00 | 0.36 | 0.36 | 99 | 1007.3 |
| 20260508022801 | 2 | 314 | 3.2 | 3.2 | 0.00 | 0.36 | 0.36 | 99 | 1007.3 |
| 20260508022257 | 2 | 277 | 4.8 | 4.8 | 0.00 | 0.36 | 0.36 | 99 | 1007.3 |
| 20260508021755 | 2 | 312 | 1.6 | 1.6 | 0.00 | 0.36 | 0.36 | 99 | 1007.3 |
| 20260508021250 | 2 | 266 | 9.7 | 11.3 | 0.00 | 0.36 | 0.36 | 99 | 1007.3 |
| 20260508020747 | 2 | 293 | 4.8 | 4.8 | 0.00 | 0.36 | 0.36 | 99 | 1007.4 |
| 20260508020245 | 2 | 285 | 3.2 | 3.2 | 0.00 | 0.36 | 0.36 | 99 | 1007.1 |
| 20260508015741 | 2 | 307 | 3.2 | 3.2 | 0.00 | 0.36 | 0.36 | 99 | 1007.4 |
| 20260508015238 | 2 | 327 | 3.2 | 4.8 | 0.00 | 0.36 | 0.36 | 99 | 1007.3 |
| 20260508014735 | 2 | 275 | 3.2 | 3.2 | 0.00 | 0.36 | 0.36 | 99 | 1007.1 |
| 20260508014232 | 2 | 185 | 3.2 | 4.8 | 0.00 | 0.36 | 0.36 | 99 | 1007.3 |
| 20260508013728 | 2 | 296 | 3.2 | 4.8 | 0.00 | 0.36 | 0.36 | 99 | 1007.3 |
| 20260508013224 | 3 | 220 | 6.4 | 8.0 | 0.00 | 0.36 | 0.36 | 99 | 1007.5 |
| 20260508012722 | 3 | 252 | 6.4 | 8.0 | 0.00 | 0.36 | 0.36 | 99 | 1007.3 |
| 20260508012219 | 3 | 244 | 4.8 | 4.8 | 0.00 | 0.36 | 0.36 | 99 | 1007.4 |
| 20260508011717 | 3 | 310 | 3.2 | 3.2 | 0.00 | 0.36 | 0.36 | 99 | 1007.3 |
| 20260508011214 | 3 | 278 | 9.7 | 11.3 | 0.00 | 0.36 | 0.36 | 99 | 1007.2 |
| 20260508010711 | 3 | 293 | 6.4 | 8.0 | 0.00 | 0.36 | 0.36 | 99 | 1007.3 |
| 20260508010209 | 3 | 265 | 11.3 | 14.5 | 0.00 | 0.36 | 0.36 | 99 | 1007.4 |
| 20260508005706 | 3 | 249 | 8.0 | 9.7 | 0.00 | 0.36 | 0.36 | 99 | 1007.1 |
| 20260508005202 | 3 | 228 | 6.4 | 9.7 | 0.00 | 0.36 | 0.36 | 99 | 1007.1 |
| 20260508004658 | 3 | 304 | 6.4 | 8.0 | 0.00 | 0.36 | 0.36 | 99 | 1007.3 |
| 20260508004154 | 2 | 238 | 4.8 | 9.7 | 0.00 | 0.36 | 0.36 | 99 | 1007.2 |
| 20260508003651 | 2 | 317 | 4.8 | 4.8 | 0.00 | 0.36 | 0.36 | 99 | 1007.1 |
| 20260508003149 | 2 | 289 | 6.4 | 8.0 | 0.00 | 0.36 | 0.36 | 99 | 1007.0 |
| 20260508002645 | 2 | 311 | 3.2 | 3.2 | 0.00 | 0.36 | 0.36 | 99 | 1007.2 |
| 20260508002143 | 2 | 256 | 4.8 | 4.8 | 0.00 | 0.36 | 0.36 | 99 | 1007.1 |
| 20260508001638 | 2 | 301 | 3.2 | 3.2 | 0.00 | 0.36 | 0.36 | 99 | 1007.2 |
| 20260508001134 | 2 | 320 | 3.2 | 4.8 | 0.00 | 0.36 | 0.36 | 99 | 1006.8 |
| 20260508000630 | 3 | 277 | 4.8 | 8.0 | 0.00 | 0.36 | 0.36 | 99 | 1006.9 |
| 20260508000128 | 3 | 308 | 4.8 | 4.8 | 0.00 | 0.36 | 0.36 | 99 | 1007.1 |
| 20260507235624 | 3 | 264 | 3.2 | 3.2 | 0.00 | 0.36 | 0.36 | 99 | 1007.0 |
| 20260507235122 | 3 | 300 | 3.2 | 3.2 | 0.00 | 0.36 | 0.36 | 99 | 1006.9 |
| 20260507234618 | 3 | 279 | 1.6 | 3.2 | 0.00 | 0.36 | 0.36 | 99 | 1007.1 |
| 20260507234115 | 3 | 329 | 3.2 | 3.2 | 0.00 | 0.36 | 0.36 | 99 | 1007.1 |
| 20260507233612 | 3 | 310 | 3.2 | 3.2 | 0.00 | 0.36 | 0.36 | 99 | 1006.9 |
| 20260507233110 | 3 | 296 | 4.8 | 4.8 | 0.00 | 0.36 | 0.36 | 99 | 1007.0 |
| 20260507232611 | 3 | 280 | 1.6 | 3.2 | 0.00 | 0.36 | 0.36 | 99 | 1006.9 |
| 20260507232104 | 3 | 315 | 3.2 | 3.2 | 0.00 | 0.36 | 0.36 | 98 | 1006.8 |
| 20260507231600 | 3 | 333 | 0.0 | 0.0 | 0.00 | 0.36 | 0.36 | 97 | 1006.8 |
| 20260507231057 | 3 | 292 | 4.8 | 4.8 | 0.00 | 0.36 | 0.36 | 97 | 1006.9 |
| 20260507230553 | 3 | 284 | 6.4 | 8.0 | 0.00 | 0.36 | 0.36 | 96 | 1007.0 |
| 20260507230050 | 3 | 314 | 4.8 | 4.8 | 0.00 | 0.36 | 0.36 | 96 | 1006.9 |
| 20260507225545 | 3 | 242 | 4.8 | 8.0 | 0.00 | 0.36 | 0.36 | 96 | 1006.7 |
| 20260507225042 | 3 | 290 | 9.7 | 11.3 | 0.00 | 0.36 | 0.36 | 95 | 1006.8 |
| 20260507224537 | 4 | 258 | 6.4 | 8.0 | 0.00 | 0.36 | 0.36 | 95 | 1007.0 |
| 20260507224034 | 4 | 261 | 9.7 | 11.3 | 0.00 | 0.36 | 0.36 | 95 | 1006.8 |
| 20260507223531 | 4 | 257 | 6.4 | 9.7 | 0.00 | 0.36 | 0.36 | 95 | 1007.0 |
| 20260507223028 | 4 | 158 | 4.8 | 4.8 | 0.00 | 0.36 | 0.36 | 96 | 1006.7 |
| 20260507222525 | 4 | 314 | 4.8 | 4.8 | 0.00 | 0.36 | 0.36 | 96 | 1007.0 |
| 20260507222021 | 4 | 300 | 6.4 | 9.7 | 0.00 | 0.36 | 0.36 | 95 | 1006.7 |
| 20260507221517 | 4 | 291 | 3.2 | 3.2 | 0.00 | 0.36 | 0.36 | 95 | 1006.8 |
| 20260507221015 | 4 | 327 | 1.6 | 1.6 | 0.00 | 0.36 | 0.36 | 96 | 1006.8 |
| 20260507220512 | 3 | 320 | 1.6 | 3.2 | 0.00 | 0.36 | 0.36 | 97 | 1006.6 |
| 20260507220009 | 4 | 330 | 0.0 | 1.6 | 0.00 | 0.36 | 0.36 | 96 | 1006.9 |
| 20260507215505 | 3 | 304 | 4.8 | 4.8 | 0.00 | 0.36 | 0.36 | 94 | 1006.7 |
| 20260507215003 | 4 | 290 | 1.6 | 1.6 | 0.00 | 0.36 | 0.36 | 96 | 1006.6 |
| 20260507214500 | 3 | 275 | 6.4 | 8.0 | 0.00 | 0.36 | 0.36 | 94 | 1006.6 |
| 20260507213955 | 3 | 236 | 6.4 | 8.0 | 0.00 | 0.36 | 0.36 | 95 | 1006.7 |
| 20260507213452 | 4 | 321 | 4.8 | 4.8 | 0.00 | 0.36 | 0.36 | 95 | 1006.6 |
| 20260507212949 | 4 | 245 | 8.0 | 9.7 | 0.00 | 0.36 | 0.36 | 95 | 1006.6 |
| 20260507212444 | 5 | 257 | 6.4 | 9.7 | 0.00 | 0.36 | 0.36 | 95 | 1006.5 |
| 20260507211942 | 5 | 268 | 14.5 | 17.7 | 0.00 | 0.36 | 0.36 | 93 | 1006.3 |
| 20260507211438 | 6 | 298 | 4.8 | 4.8 | 0.00 | 0.36 | 0.36 | 90 | 1006.2 |
| 20260507210935 | 6 | 284 | 4.8 | 4.8 | 0.00 | 0.36 | 0.36 | 89 | 1005.9 |
| 20260507210432 | 6 | 332 | 1.6 | 3.2 | 0.00 | 0.36 | 0.36 | 91 | 1006.0 |
| 20260507205929 | 6 | 262 | 4.8 | 8.0 | 0.00 | 0.36 | 0.36 | 90 | 1006.0 |
| 20260507205426 | 6 | 262 | 4.8 | 4.8 | 0.00 | 0.36 | 0.36 | 90 | 1005.9 |
| 20260507204922 | 6 | 302 | 3.2 | 3.2 | 0.00 | 0.36 | 0.36 | 91 | 1005.7 |
| 20260507204418 | 6 | 312 | 6.4 | 8.0 | 0.00 | 0.36 | 0.36 | 91 | 1005.8 |
| 20260507203916 | 6 | 299 | 8.0 | 9.7 | 0.00 | 0.36 | 0.36 | 89 | 1005.5 |
| 20260507203414 | 6 | 303 | 4.8 | 9.7 | 0.00 | 0.36 | 0.36 | 89 | 1005.9 |
| 20260507202910 | 6 | 286 | 4.8 | 8.0 | 0.00 | 0.36 | 0.36 | 85 | 1005.8 |
| 20260507202407 | 7 | 263 | 4.8 | 8.0 | 0.00 | 0.36 | 0.36 | 87 | 1005.6 |
| 20260507201902 | 7 | 300 | 3.2 | 4.8 | 0.00 | 0.36 | 0.36 | 88 | 1005.6 |
| 20260507201358 | 7 | 297 | 4.8 | 4.8 | 0.00 | 0.36 | 0.36 | 89 | 1005.8 |
| 20260507200854 | 8 | 351 | 1.6 | 3.2 | 0.00 | 0.36 | 0.36 | 91 | 1005.6 |
| 20260507200350 | 7 | 262 | 6.4 | 9.7 | 0.00 | 0.36 | 0.36 | 89 | 1005.6 |
| 20260507195847 | 7 | 280 | 3.2 | 3.2 | 0.00 | 0.36 | 0.36 | 93 | 1005.9 |
| 20260507195344 | 6 | 317 | 3.2 | 3.2 | 0.00 | 0.36 | 0.36 | 95 | 1005.7 |
| 20260507194841 | 6 | 350 | 3.2 | 3.2 | 0.00 | 0.36 | 0.36 | 97 | 1005.8 |
| 20260507194338 | 6 | 335 | 1.6 | 1.6 | 0.00 | 0.36 | 0.36 | 98 | 1005.8 |
| 20260507193834 | 6 | 232 | 1.6 | 3.2 | 0.00 | 0.36 | 0.36 | 99 | 1006.0 |
| 20260507193332 | 6 | 268 | 6.4 | 8.0 | 0.00 | 0.36 | 0.36 | 97 | 1006.0 |
| 20260507192827 | 6 | 316 | 1.6 | 3.2 | 0.00 | 0.36 | 0.36 | 98 | 1005.9 |
| 20260507192324 | 6 | 329 | 1.6 | 1.6 | 0.00 | 0.36 | 0.36 | 97 | 1006.0 |
| 20260507191821 | 6 | 307 | 1.6 | 1.6 | 0.00 | 0.36 | 0.36 | 99 | 1006.0 |
| 20260507191317 | 5 | 328 | 1.6 | 3.2 | 0.00 | 0.36 | 0.36 | 99 | 1006.1 |
| 20260507190814 | 5 | 1 | 1.6 | 3.2 | 0.00 | 0.36 | 0.36 | 99 | 1006.1 |
| 20260507190312 | 6 | 274 | 4.8 | 4.8 | 0.00 | 0.36 | 0.36 | 99 | 1006.1 |
| 20260507185811 | 6 | 294 | 4.8 | 9.7 | 0.00 | 0.36 | 0.36 | 99 | 1006.2 |
| 20260507185307 | 6 | 298 | 1.6 | 1.6 | 0.00 | 0.36 | 0.36 | 99 | 1006.2 |
| 20260507184804 | 5 | 344 | 3.2 | 3.2 | 0.00 | 0.36 | 0.36 | 99 | 1006.3 |
| 20260507184303 | 5 | 302 | 0.0 | 1.6 | 0.00 | 0.36 | 0.36 | 99 | 1006.7 |
| 20260507183759 | 4 | 336 | 0.0 | 1.6 | 0.00 | 0.36 | 0.36 | 99 | 1006.8 |
| 20260507183256 | 4 | 297 | 0.0 | 0.0 | 0.00 | 0.36 | 0.36 | 99 | 1006.9 |
| 20260507182753 | 4 | 322 | 1.6 | 3.2 | 0.00 | 0.36 | 0.36 | 99 | 1006.9 |
| 20260507182248 | 4 | 310 | 1.6 | 1.6 | 0.00 | 0.36 | 0.36 | 99 | 1006.7 |
| 20260507181745 | 3 | 302 | 1.6 | 3.2 | 0.00 | 0.36 | 0.36 | 99 | 1006.9 |
| 20260507181241 | 3 | 298 | 1.6 | 3.2 | 0.00 | 0.36 | 0.36 | 99 | 1006.8 |
| 20260507180738 | 3 | 315 | 4.8 | 9.7 | 0.00 | 0.36 | 0.36 | 99 | 1006.7 |
| 20260507180235 | 3 | 342 | 8.0 | 14.5 | 0.18 | 0.36 | 0.36 | 99 | 1006.8 |
| 20260507175730 | 3 | 288 | 8.0 | 11.3 | 0.18 | 0.36 | 0.36 | 99 | 1006.7 |
| 20260507175228 | 3 | 293 | 8.0 | 9.7 | 0.00 | 0.33 | 0.33 | 99 | 1006.9 |
| 20260507174725 | 3 | 182 | 4.8 | 8.0 | 0.13 | 0.33 | 0.33 | 99 | 1007.0 |
| 20260507174223 | 4 | 239 | 8.0 | 11.3 | 0.13 | 0.33 | 0.33 | 99 | 1006.6 |
| 20260507173720 | 4 | 319 | 4.8 | 8.0 | 0.18 | 0.30 | 0.30 | 99 | 1006.9 |
| 20260507173217 | 4 | 267 | 8.0 | 12.9 | 0.18 | 0.30 | 0.30 | 99 | 1006.7 |
| 20260507172714 | 4 | 291 | 4.8 | 8.0 | 0.13 | 0.28 | 0.28 | 99 | 1006.6 |
| 20260507172210 | 4 | 293 | 4.8 | 4.8 | 0.13 | 0.28 | 0.28 | 99 | 1006.6 |
| 20260507171705 | 4 | 344 | 6.4 | 9.7 | 0.00 | 0.25 | 0.25 | 99 | 1006.6 |
| 20260507171203 | 4 | 267 | 14.5 | 20.9 | 0.00 | 0.25 | 0.25 | 99 | 1006.5 |
| 20260507170659 | 3 | 316 | 1.6 | 3.2 | 0.18 | 0.25 | 0.25 | 99 | 1006.7 |
| 20260507170157 | 3 | 298 | 4.8 | 4.8 | 0.18 | 0.25 | 0.25 | 99 | 1006.7 |
| 20260507165652 | 3 | 284 | 4.8 | 4.8 | 0.00 | 0.23 | 0.23 | 99 | 1006.7 |
| 20260507165148 | 3 | 344 | 3.2 | 4.8 | 0.43 | 0.23 | 0.23 | 99 | 1006.5 |
| 20260507164644 | 3 | 294 | 3.2 | 4.8 | 1.19 | 0.23 | 0.23 | 99 | 1006.8 |
| 20260507164142 | 3 | 315 | 4.8 | 8.0 | 1.07 | 0.18 | 0.18 | 99 | 1006.9 |
| 20260507163638 | 5 | 333 | 3.2 | 3.2 | 0.30 | 0.05 | 0.05 | 99 | 1006.7 |
| 20260507163137 | 5 | 297 | 6.4 | 9.7 | 0.00 | 0.00 | 0.00 | 97 | 1006.5 |
| 20260507162632 | 6 | 240 | 6.4 | 8.0 | 0.00 | 0.00 | 0.00 | 96 | 1006.5 |
| 20260507162128 | 7 | 279 | 6.4 | 9.7 | 0.00 | 0.00 | 0.00 | 95 | 1006.2 |
| 20260507161625 | 7 | 331 | 1.6 | 1.6 | 0.00 | 0.00 | 0.00 | 96 | 1006.2 |
| 20260507161122 | 7 | 299 | 3.2 | 3.2 | 0.00 | 0.00 | 0.00 | 96 | 1006.2 |
| 20260507160618 | 7 | 178 | 3.2 | 3.2 | 0.00 | 0.00 | 0.00 | 95 | 1006.3 |
| 20260507160114 | 7 | 247 | 4.8 | 4.8 | 0.00 | 0.00 | 0.00 | 97 | 1006.6 |
| 20260507155610 | 6 | 261 | 1.6 | 3.2 | 0.00 | 0.00 | 0.00 | 98 | 1006.7 |
| 20260507155107 | 6 | 287 | 1.6 | 1.6 | 0.00 | 0.00 | 0.00 | 99 | 1006.8 |
| 20260507154604 | 6 | 315 | 1.6 | 1.6 | 0.00 | 0.00 | 0.00 | 98 | 1006.7 |
| 20260507154101 | 6 | 308 | 0.0 | 1.6 | 0.00 | 0.00 | 0.00 | 99 | 1006.9 |
| 20260507153557 | 6 | 281 | 4.8 | 4.8 | 0.00 | 0.00 | 0.00 | 99 | 1006.9 |
| 20260507153054 | 5 | 268 | 4.8 | 4.8 | 0.00 | 0.00 | 0.00 | 99 | 1007.1 |
| 20260507152550 | 5 | 258 | 3.2 | 3.2 | 0.00 | 0.00 | 0.00 | 99 | 1007.3 |
| 20260507152046 | 5 | 327 | 1.6 | 1.6 | 0.00 | 0.00 | 0.00 | 99 | 1007.0 |
| 20260507151542 | 5 | 318 | 1.6 | 3.2 | 0.00 | 0.00 | 0.00 | 99 | 1007.4 |
| 20260507151040 | 5 | 335 | 1.6 | 1.6 | 0.00 | 0.00 | 0.00 | 99 | 1007.2 |
| 20260507150537 | 5 | 286 | 6.4 | 9.7 | 0.00 | 0.00 | 0.00 | 99 | 1007.2 |
| 20260507150033 | 5 | 287 | 4.8 | 4.8 | 0.00 | 0.00 | 0.00 | 99 | 1007.4 |
| 20260507145528 | 5 | 314 | 8.0 | 11.3 | 0.00 | 0.00 | 0.00 | 99 | 1007.3 |
| 20260507145026 | 5 | 305 | 3.2 | 3.2 | 0.00 | 0.00 | 0.00 | 99 | 1007.2 |
| 20260507144522 | 5 | 320 | 6.4 | 9.7 | 0.00 | 0.00 | 0.00 | 99 | 1007.2 |
| 20260507144020 | 5 | 327 | 0.0 | 1.6 | 0.00 | 0.00 | 0.00 | 99 | 1007.1 |
| 20260507143517 | 5 | 267 | 8.0 | 11.3 | 0.00 | 0.00 | 0.00 | 99 | 1007.0 |
| 20260507143015 | 5 | 310 | 1.6 | 1.6 | 0.00 | 0.00 | 0.00 | 99 | 1007.2 |
| 20260507142510 | 5 | 292 | 1.6 | 3.2 | 0.00 | 0.00 | 0.00 | 99 | 1007.2 |
| 20260507142007 | 5 | 292 | 3.2 | 3.2 | 0.00 | 0.00 | 0.00 | 99 | 1007.1 |
| 20260507141503 | 5 | 306 | 1.6 | 3.2 | 0.00 | 0.00 | 0.00 | 99 | 1007.1 |
| 20260507140959 | 4 | 296 | 6.4 | 8.0 | 0.00 | 0.00 | 0.00 | 99 | 1007.3 |
| 20260507140456 | 4 | 265 | 1.6 | 4.8 | 0.00 | 0.00 | 0.00 | 99 | 1007.5 |
| 20260507135954 | 5 | 272 | 3.2 | 3.2 | 0.00 | 0.00 | 0.00 | 99 | 1007.3 |
| 20260507135451 | 4 | 269 | 3.2 | 3.2 | 0.00 | 0.00 | 0.00 | 99 | 1007.5 |
| 20260507134948 | 4 | 353 | 3.2 | 3.2 | 0.00 | 0.00 | 0.00 | 99 | 1007.4 |
| 20260507134444 | 4 | 288 | 4.8 | 4.8 | 0.00 | 0.00 | 0.00 | 99 | 1007.3 |
| 20260507133940 | 4 | 306 | 3.2 | 4.8 | 0.00 | 0.00 | 0.00 | 99 | 1007.1 |
| 20260507133436 | 4 | 291 | 3.2 | 3.2 | 0.00 | 0.00 | 0.00 | 99 | 1007.1 |
| 20260507132935 | 4 | 221 | 3.2 | 8.0 | 0.00 | 0.00 | 0.00 | 99 | 1007.4 |
| 20260507132431 | 4 | 299 | 1.6 | 3.2 | 0.00 | 0.00 | 0.00 | 99 | 1007.3 |
| 20260507131927 | 4 | 300 | 3.2 | 3.2 | 0.00 | 0.00 | 0.00 | 99 | 1007.4 |
| 20260507131425 | 4 | 285 | 4.8 | 4.8 | 0.00 | 0.00 | 0.00 | 99 | 1007.3 |
| 20260507130922 | 4 | 301 | 1.6 | 1.6 | 0.00 | 0.00 | 0.00 | 99 | 1007.4 |
| 20260507130419 | 4 | 262 | 4.8 | 8.0 | 0.00 | 0.00 | 0.00 | 99 | 1007.4 |
| 20260507125918 | 3 | 299 | 3.2 | 3.2 | 0.00 | 0.00 | 0.00 | 99 | 1007.5 |
| 20260507125415 | 3 | 282 | 1.6 | 1.6 | 0.00 | 0.00 | 0.00 | 99 | 1007.5 |
| 20260507124912 | 3 | 251 | 6.4 | 9.7 | 0.00 | 0.00 | 0.00 | 99 | 1007.2 |
| 20260507124408 | 3 | 283 | 3.2 | 3.2 | 0.00 | 0.00 | 0.00 | 99 | 1007.5 |
| 20260507123907 | 3 | 257 | 4.8 | 4.8 | 0.00 | 0.00 | 0.00 | 99 | 1007.3 |
| 20260507123403 | 3 | 309 | 3.2 | 3.2 | 0.00 | 0.00 | 0.00 | 99 | 1007.2 |
| 20260507122900 | 4 | 310 | 4.8 | 4.8 | 0.00 | 0.00 | 0.00 | 99 | 1007.6 |
| 20260507122355 | 4 | 273 | 3.2 | 3.2 | 0.00 | 0.00 | 0.00 | 99 | 1007.4 |
| 20260507121852 | 4 | 249 | 6.4 | 8.0 | 0.00 | 0.00 | 0.00 | 99 | 1007.4 |
| 20260507121347 | 3 | 342 | 0.0 | 0.0 | 0.00 | 0.00 | 0.00 | 99 | 1007.4 |
| 20260507120844 | 3 | 267 | 4.8 | 4.8 | 0.00 | 0.00 | 0.00 | 99 | 1007.5 |
| 20260507120340 | 3 | 260 | 3.2 | 4.8 | 0.00 | 0.00 | 0.00 | 99 | 1007.6 |
| 20260507115837 | 3 | 267 | 6.4 | 8.0 | 0.00 | 0.00 | 0.00 | 99 | 1007.5 |
| 20260507115332 | 3 | 281 | 3.2 | 4.8 | 0.00 | 0.00 | 0.00 | 99 | 1007.3 |
| 20260507114828 | 3 | 268 | 1.6 | 3.2 | 0.00 | 0.00 | 0.00 | 99 | 1007.3 |
| 20260507114326 | 3 | 292 | 1.6 | 1.6 | 0.00 | 0.00 | 0.00 | 99 | 1007.3 |
| 20260507113823 | 3 | 261 | 4.8 | 8.0 | 0.00 | 0.00 | 0.00 | 99 | 1007.4 |
| 20260507113320 | 3 | 287 | 1.6 | 3.2 | 0.00 | 0.00 | 0.00 | 99 | 1007.3 |
| 20260507112818 | 3 | 318 | 3.2 | 4.8 | 0.00 | 0.00 | 0.00 | 99 | 1007.4 |
| 20260507112314 | 3 | 322 | 1.6 | 1.6 | 0.00 | 0.00 | 0.00 | 99 | 1007.4 |
| 20260507111812 | 3 | 326 | 3.2 | 3.2 | 0.00 | 0.00 | 0.00 | 99 | 1007.3 |
| 20260507111308 | 3 | 270 | 1.6 | 1.6 | 0.00 | 0.00 | 0.00 | 99 | 1007.3 |
| 20260507110804 | 3 | 253 | 6.4 | 9.7 | 0.00 | 0.00 | 0.00 | 99 | 1007.4 |
| 20260507110301 | 3 | 293 | 3.2 | 3.2 | 0.00 | 0.00 | 0.00 | 99 | 1007.3 |
| 20260507105758 | 3 | 338 | 3.2 | 3.2 | 0.00 | 0.00 | 0.00 | 99 | 1007.5 |
| 20260507105254 | 3 | 271 | 4.8 | 4.8 | 0.00 | 0.00 | 0.00 | 99 | 1007.5 |
| 20260507104752 | 3 | 327 | 0.0 | 0.0 | 0.00 | 0.00 | 0.00 | 99 | 1007.5 |
| 20260507104248 | 3 | 259 | 4.8 | 4.8 | 0.00 | 0.00 | 0.00 | 99 | 1007.2 |
| 20260507103744 | 3 | 287 | 1.6 | 1.6 | 0.00 | 0.00 | 0.00 | 99 | 1007.0 |
| 20260507103240 | 3 | 291 | 4.8 | 4.8 | 0.00 | 0.00 | 0.00 | 99 | 1007.2 |
| 20260507102737 | 3 | 312 | 4.8 | 8.0 | 0.00 | 0.00 | 0.00 | 99 | 1007.1 |
| 20260507102233 | 3 | 293 | 3.2 | 4.8 | 0.00 | 0.00 | 0.00 | 99 | 1007.4 |
| 20260507101730 | 3 | 279 | 3.2 | 4.8 | 0.00 | 0.00 | 0.00 | 99 | 1007.4 |
| 20260507101225 | 3 | 290 | 1.6 | 1.6 | 0.00 | 0.00 | 0.00 | 99 | 1007.3 |
| 20260507100722 | 3 | 330 | 4.8 | 4.8 | 0.00 | 0.00 | 0.00 | 99 | 1007.4 |
| 20260507100221 | 3 | 312 | 1.6 | 1.6 | 0.00 | 0.00 | 0.00 | 99 | 1007.5 |
| 20260507095718 | 3 | 301 | 1.6 | 1.6 | 0.00 | 0.00 | 0.00 | 99 | 1007.3 |
| 20260507095215 | 3 | 0 | 0.0 | 0.0 | 0.00 | 0.00 | 0.00 | 99 | 1007.4 |
| 20260507094712 | 3 | 302 | 4.8 | 8.0 | 0.00 | 0.00 | 0.00 | 99 | 1007.3 |
| 20260507094209 | 3 | 284 | 1.6 | 1.6 | 0.00 | 0.00 | 0.00 | 99 | 1007.2 |
| 20260507093705 | 3 | 5 | 0.0 | 0.0 | 0.00 | 0.00 | 0.00 | 99 | 1007.3 |
| 20260507093204 | 3 | 55 | 4.8 | 8.0 | 0.00 | 0.00 | 0.00 | 99 | 1007.4 |
| 20260507092701 | 3 | 35 | 0.0 | 0.0 | 0.00 | 0.00 | 0.00 | 99 | 1007.3 |
| 20260507092157 | 3 | 349 | 3.2 | 3.2 | 0.00 | 0.00 | 0.00 | 99 | 1007.4 |
| 20260507091654 | 3 | 353 | 0.0 | 0.0 | 0.00 | 0.00 | 0.00 | 99 | 1007.3 |
| 20260507091150 | 3 | 348 | 0.0 | 0.0 | 0.00 | 0.00 | 0.00 | 99 | 1007.4 |
| 20260507090645 | 3 | 2 | 0.0 | 0.0 | 0.00 | 0.00 | 0.00 | 99 | 1007.4 |
| 20260507090143 | 3 | 336 | 0.0 | 0.0 | 0.00 | 0.00 | 0.00 | 99 | 1007.1 |
| 20260507085640 | 3 | 33 | 0.0 | 0.0 | 0.00 | 0.00 | 0.00 | 99 | 1007.2 |
| 20260507085137 | 3 | 268 | 1.6 | 3.2 | 0.00 | 0.00 | 0.00 | 99 | 1007.2 |
| 20260507084633 | 3 | 328 | 1.6 | 3.2 | 0.00 | 0.00 | 0.00 | 99 | 1007.5 |
| 20260507084130 | 3 | 255 | 1.6 | 1.6 | 0.00 | 0.00 | 0.00 | 99 | 1007.2 |
| 20260507083627 | 3 | 5 | 1.6 | 1.6 | 0.00 | 0.00 | 0.00 | 99 | 1007.2 |
| 20260507083124 | 3 | 309 | 0.0 | 0.0 | 0.00 | 0.00 | 0.00 | 99 | 1007.1 |
| 20260507082619 | 3 | 343 | 0.0 | 0.0 | 0.00 | 0.00 | 0.00 | 99 | 1007.1 |
| 20260507082116 | 3 | 334 | 1.6 | 1.6 | 0.00 | 0.00 | 0.00 | 99 | 1007.3 |
| 20260507081613 | 3 | 330 | 0.0 | 1.6 | 0.00 | 0.00 | 0.00 | 99 | 1007.2 |
| 20260507081109 | 3 | 333 | 0.0 | 1.6 | 0.00 | 0.00 | 0.00 | 99 | 1007.3 |
| 20260507080606 | 3 | 336 | 1.6 | 1.6 | 0.00 | 0.00 | 0.00 | 99 | 1007.3 |
| 20260507075557 | 2 | 309 | 0.0 | 1.6 | 0.00 | 0.00 | 0.00 | 99 | 1007.3 |
| 20260507075054 | 2 | 304 | 1.6 | 1.6 | 0.00 | 0.00 | 0.00 | 99 | 1007.3 |
| 20260507074551 | 2 | 333 | 0.0 | 1.6 | 0.00 | 0.00 | 0.00 | 99 | 1007.2 |
| 20260507074049 | 2 | 320 | 1.6 | 1.6 | 0.00 | 0.00 | 0.00 | 99 | 1007.3 |
| 20260507073545 | 3 | 258 | 6.4 | 9.7 | 0.00 | 0.00 | 0.00 | 99 | 1007.4 |
| 20260507073041 | 2 | 249 | 6.4 | 9.7 | 0.00 | 0.00 | 0.00 | 99 | 1007.3 |
| 20260507072539 | 2 | 276 | 4.8 | 4.8 | 0.00 | 0.00 | 0.00 | 99 | 1007.3 |
| 20260507072036 | 2 | 233 | 8.0 | 11.3 | 0.00 | 0.00 | 0.00 | 99 | 1007.3 |
| 20260507071533 | 2 | 254 | 3.2 | 3.2 | 0.00 | 0.00 | 0.00 | 99 | 1007.1 |
| 20260507071030 | 2 | 279 | 3.2 | 3.2 | 0.00 | 0.00 | 0.00 | 99 | 1007.1 |
| 20260507070527 | 2 | 257 | 4.8 | 4.8 | 0.00 | 0.00 | 0.00 | 99 | 1007.2 |
| 20260507070024 | 2 | 290 | 6.4 | 8.0 | 0.00 | 0.00 | 0.00 | 99 | 1007.1 |
| 20260507065520 | 2 | 242 | 6.4 | 8.0 | 0.00 | 0.00 | 0.00 | 99 | 1007.3 |
| 20260507065018 | 2 | 305 | 1.6 | 1.6 | 0.00 | 0.00 | 0.00 | 99 | 1007.2 |
| 20260507064515 | 3 | 286 | 9.7 | 12.9 | 0.00 | 0.00 | 0.00 | 99 | 1007.1 |
| 20260507064014 | 3 | 258 | 9.7 | 11.3 | 0.00 | 0.00 | 0.00 | 99 | 1007.2 |
| 20260507063510 | 3 | 251 | 1.6 | 3.2 | 0.00 | 0.00 | 0.00 | 99 | 1007.3 |
| 20260507063008 | 3 | 236 | 8.0 | 9.7 | 0.00 | 0.00 | 0.00 | 99 | 1007.2 |
| 20260507062504 | 3 | 243 | 4.8 | 4.8 | 0.00 | 0.00 | 0.00 | 99 | 1007.2 |
| 20260507062002 | 3 | 275 | 4.8 | 4.8 | 0.00 | 0.00 | 0.00 | 99 | 1007.5 |
| 20260507061459 | 3 | 277 | 8.0 | 9.7 | 0.00 | 0.00 | 0.00 | 99 | 1007.7 |
| 20260507060958 | 3 | 326 | 3.2 | 4.8 | 0.00 | 0.00 | 0.00 | 99 | 1007.7 |